OpenBCM V1.13 (Linux)

Packet Radio Mailbox

DB0FHN

[JN59NK Nuernberg]

 Login: GUEST





  
I0OJJ  > KEPS     06.02.26 02:33l 317 Lines 15172 Bytes #999 (0) @ AMSAT
BID : ORB26037.1
Read: OE5RCO DJ6UX GUEST
Subj: 2Line Orbital Elements 26037.AMSAT
Path: DB0FHN<DB0RKB<DK0WUE<PD0LPM<PI8ZTM<CX2SA<EA2RCF<I0OJJ
Sent: 260206/0021z @:I0OJJ.ITA.EU [Rome] obcm1.13-38-g65b7
From: I0OJJ @ I0OJJ.ITA.EU (Gustavo)
To:   KEPS @ AMSAT
X-Info: This message was generated automatically


QST de W1STR

AMSAT Orbital Elements for Amateur Satellites in TLE Format
From Orbital Analysis Office
New England Sci-Tech STEM Education Center
Natick MA February 06, 2026
To all radio amateurs


These element sets describe the orbits of various satellites 
in use by the amateur radio community. For details see:
www.amsat.org/keplerian-elements-formats/

A daily update of element sets is available at:
www.amsat.org/tle/daily-bulletin.txt
or without bulletin text:
www.amsat.org/tle/dailytle.txt


AO-07
1 07530U 74089B   26036.56952300 -.00000051  00000-0 -25567-4 0  9997
2 07530 101.9971  48.4149 0012269  23.6522  97.1795 12.53695634344020
UO-11
1 14781U 84021B   26036.85138237  .00003200  00000-0  33425-3 0  9995
2 14781  97.7897   4.0571 0006026 256.2903 103.7644 14.90386170237565
AO-27
1 22825U 93061C   26036.75106129  .00000193  00000-0  90537-4 0  9997
2 22825  98.7051 104.1259 0009343 122.7781 237.4303 14.30902163688205
FO-29
1 24278U 96046B   26036.55997556 -.00000005  00000-0  27928-4 0  9994
2 24278  98.5423 263.3194 0350858  77.9822 286.0409 13.53266581455360
GO-32
1 25397U 98043D   26036.84914832  .00000143  00000-0  82110-4 0  9990
2 25397  98.9985  26.3518 0000718 181.8768 178.2407 14.24396894432633
ISS
1 25544U 98067A   26036.50214262  .00012860  00000-0  24571-3 0  9998
2 25544  51.6316 231.4727 0011155  67.3664 292.8503 15.48414003551342
NO-44
1 26931U 01043C   26036.84737171  .00000284  00000-0  13676-3 0  9994
2 26931  67.0487 223.9627 0007059 266.3426  93.6869 14.31893742271649
SO-50
1 27607U 02058C   26036.78226612  .00003071  00000-0  38022-3 0  9997
2 27607  64.5527 175.4412 0074415 286.4546  72.8391 14.82654339244974
CO-55
1 27844U 03031E   26036.59908544  .00000535  00000-0  25084-3 0  9998
2 27844  98.6774  46.7991 0009156 201.7730 158.3060 14.24238759172946
CO-57
1 27848U 03031J   26035.95980955  .00000380  00000-0  18611-3 0  9993
2 27848  98.6803  45.9868 0008714 223.0239 137.0259 14.23537045172568
RS-22
1 27939U 03042A   26036.87927965  .00001904  00000-0  30340-3 0  9996
2 27939  98.3396 217.5627 0010829 330.6286 158.7997 14.73159735196218
CO-58
1 28895U 05043F   26036.84059675  .00003319  00000-0  53424-3 0  9992
2 28895  98.2777 189.8776 0013165 261.4739  98.4976 14.72174913 82426
CO-65
1 32785U 08021C   26036.86599145  .00010318  00000-0  67531-3 0  9998
2 32785  97.8166  15.7922 0011150 110.7021 249.5403 15.07900628965397
CO-66
1 32791U 08021J   26036.51228863  .00029913  00000-0  11062-2 0  9991
2 32791  97.7494  28.6503 0005457  70.6075 289.5753 15.27642087967153
RS-30
1 32953U 08025A   26036.83835274  .00000082  00000-0  51959-3 0  9996
2 32953  82.4990  77.1483 0018492 235.9321 124.0003 12.43175015803375
SRMSAT
1 37841U 11058D   26036.68349419  .00000536  00000-0  14731-3 0  9992
2 37841  19.9711 135.4160 0011578 196.7827 317.6264 14.11535642739218
ZACUBE-1
1 39417U 13066B   26036.31273955  .00010711  00000-0  85247-3 0  9991
2 39417  97.8173 357.9848 0041005 331.8432  28.0573 14.99911337660957
Delfi-N3xt
1 39428U 13066N   26036.71988532  .00016289  00000-0  14810-2 0  9994
2 39428  97.8350 317.3439 0075529 284.3472  74.9371 14.93115011654998
GOMX-1
1 39430U 13066Q   26036.81149106  .00004592  00000-0  69560-3 0  9991
2 39430  97.6575 245.5028 0130467 138.9123 222.1999 14.68959668650629
LO-74
1 39440U 13066AA  26036.85759971  .00007926  00000-0  74885-3 0  9993
2 39440  97.8774 345.5020 0060752 102.2852 258.5178 14.92571364657391
AO-73
1 39444U 13066AE  26036.84840315  .00016831  00000-0  11021-2 0  9996
2 39444  97.8146   5.8746 0036002 291.7835  67.9563 15.07271677659860
DTUSAT-2
1 40030U 14033W   26035.92677734  .00012479  00000-0  71233-3 0  9991
2 40030  98.0812  25.5056 0007363 339.0374  21.0552 15.12874900632674
EO-80
1 40032U 14033Y   26036.85944604  .00015297  00000-0  86835-3 0  9994
2 40032  98.0698  25.8123 0005742 261.5509  98.5070 15.13030813632799
LILACSAT-2
1 40908U 15049K   26036.82798980  .00032480  00000-0  64673-3 0  9994
2 40908  97.4853  68.9685 0008044  23.5307 336.6309 15.46818395575419
Horyu-4
1 41340U 16012D   26036.79835096  .00095381  00000-0  12276-2 0  9992
2 41340  30.9926 290.1351 0002111  56.4324 303.6528 15.57641896550125
Lapan A3
1 41603U 16040E   26036.89408221  .00006864  00000-0  22344-3 0  9998
2 41603  97.1462  37.4726 0012206 120.8858 239.3586 15.32094796534708
CAS-2T
1 41847U 16066G   26036.77176029  .00002964  00000-0  42378-3 0  9997
2 41847  98.3946 113.9650 0343329 168.0208 192.9417 14.44352716485826
TechnoSat
1 42829U 17042E   26036.42920423  .00006075  00000-0  44259-3 0  9997
2 42829  97.4098 199.3141 0017986 178.1793 181.9503 15.03972195466891
AO-91
1 43017U 17073E   26036.06900093  .00012056  00000-0  54921-3 0  9995
2 43017  97.4898 266.0622 0159099  64.1463 297.6076 15.10127368445434
S-Net D
1 43186U 18014G   26036.71543975  .00009698  00000-0  51923-3 0  9999
2 43186  97.5465 302.3884 0010224 109.0089 251.2252 15.15190860438846
S-Net B
1 43187U 18014H   26036.65838110  .00009998  00000-0  53549-3 0  9990
2 43187  97.5472 302.3141 0010961 105.5640 254.6803 15.15163012438830
S-Net A
1 43188U 18014J   26036.71492181  .00009697  00000-0  51901-3 0  9998
2 43188  97.5481 302.5556 0010839 105.9631 254.2796 15.15196759438843
S-Net C
1 43189U 18014K   26036.72761302  .00010132  00000-0  54248-3 0  9997
2 43189  97.5498 302.6224 0012315 100.1090 260.1532 15.15156682437396
Ten-Koh
1 43677U 18084G   26036.47219942  .00005123  00000-0  39328-3 0  9992
2 43677  98.0721 223.3196 0009267 199.6143 160.4725 15.02215771396384
PO-101
1 43678U 18084H   26036.83324678  .00002623  00000-0  21713-3 0  9997
2 43678  98.1069 227.5609 0008391 226.2968 133.7560 14.99803951396529
QO-100
1 43700U 18090A   26036.77516090  .00000143  00000-0  00000+0 0  9991
2 43700   0.0134 122.5279 0002404 239.9693  78.2207  1.00269476 26350
MinXSS-2
1 43758U 18099A   26036.73100694  .00047058  00000-0  12465-2 0  9995
2 43758  97.4693 109.9516 0008917  26.0406 334.1285 15.38171308393863
AO-95
1 43770U 18099N   26036.66640795  .00019834  00000-0  83061-3 0  9994
2 43770  97.4572  97.5748 0010611  91.9372 268.3080 15.23529877393176
SNUSat 2
1 43782U 18099AA  26036.66924419  .00014973  00000-0  70588-3 0  9994
2 43782  97.4258  92.1548 0011682  42.9763 317.2382 15.19524555393046
SnugLite
1 43784U 18099AC  26036.63917573  .00020807  00000-0  86179-3 0  9992
2 43784  97.4072  92.3824 0003853  52.4411 307.7176 15.23936607393267
ITASat 1
1 43786U 18099AE  26036.72556723  .00012304  00000-0  62150-3 0  9996
2 43786  97.4231  90.9032 0014682  91.4696 268.8220 15.17130456392965
EAGLET 1
1 43790U 18099AJ  26036.58836683  .00006962  00000-0  41080-3 0  9993
2 43790  97.4431  89.7140 0012989  82.1072 278.1633 15.11778113392448
ESEO
1 43792U 18099AL  26036.65039899  .00003316  00000-0  24516-3 0  9992
2 43792  97.4173  79.5812 0013605  66.1162 294.1488 15.03780494392031
JO-97
1 43803U 18099AX  26036.63237301  .00027357  00000-0  96905-3 0  9993
2 43803  97.4321  99.3265 0006539  29.2243 330.9361 15.29066819393495
Suomi 100
1 43804U 18099AY  26036.67296335  .00021752  00000-0  86966-3 0  9999
2 43804  97.4389  97.7433 0011157  31.3416 328.8484 15.25066988393357
ISAT
1 43879U 18111D   26036.74851862  .00073808  00000-0  14353-2 0  9995
2 43879  97.5909 323.8621 0008865  70.8213 289.3995 15.47299403390736
UWE-4
1 43880U 18111E   26036.74741421  .00045853  00000-0  12268-2 0  9998
2 43880  97.5866 319.9336 0011970  79.5055 280.7537 15.37834703390521
Sparrow
1 43881U 18111F   26036.83411320  .00075830  00000-0  13264-2 0  9996
2 43881  97.6108 328.0763 0008099  94.4966 265.7210 15.50337116390883
Prox-1
1 44339U 19036A   26036.76953403  .00023502  00000-0  25255-2 0  9999
2 44339  23.9949 269.8086 0006990 317.0600  42.9353 14.87015366353863
Taurus 1
1 44530U 19059C   26036.84989356  .00017565  00000-0  29121-2 0  9990
2 44530  98.6260 193.7984 0008392   3.5259 356.6003 14.70267666339335
TO-108
1 44881U 19093C   26036.84215853  .00001953  00000-0  22777-3 0  9996
2 44881  97.7674 112.2248 0014133 153.3947 206.7996 14.86267397331909
FloripaSat 1
1 44885U 19093G   26036.81575664  .00012482  00000-0  94986-3 0  9996
2 44885  97.7891 130.2651 0011863 151.0606 209.1279 15.02193317332918
RS-44
1 44909U 19096E   26036.50653489  .00000015  00000-0  87456-5 0  9999
2 44909  82.5170  67.2110 0218636  92.2775 270.3376 12.79746770285504
SALSAT
1 46495U 20068K   26036.71209266  .00015111  00000-0  56293-3 0  9991
2 46495  97.8835  32.0107 0011783  50.8176 309.4106 15.27503875295271
CSS (TIANHE-1)
1 48274U 21035A   26036.70484919  .00033602  00000-0  41781-3 0  9993
2 48274  41.4677  42.5669 0005509   7.6510 352.4411 15.59253081272613
CUTE
1 49263U 21088D   26036.77787736  .00050145  00000-0  53203-3 0  9993
2 49263  97.4266 127.2642 0004606  73.5723 286.6042 15.63935053241888
TeikyoSat 4
1 49396U 21102B   26036.64789713  .00003810  00000-0  24472-3 0  9993
2 49396  97.3835  71.1775 0012977  32.4347 327.7677 15.08957003232885
Z-Sat
1 49399U 21102E   26036.86442194  .00006199  00000-0  31513-3 0  9996
2 49399  97.3506  76.1512 0016696 351.3195   8.7747 15.17085369233526
KOSEN 1
1 49402U 21102H   26036.65467935  .00013866  00000-0  56121-3 0  9999
2 49402  97.3387  81.4188 0013041 317.3924  42.6301 15.24729979233960
HO-113
1 50466U 21131B   26036.84603916  .00000877  00000-0  28540-3 0  9997
2 50466  98.4997 129.9806 0005028 125.0798 235.0863 14.41207341216194
SNUGLITE 2
1 52899U 22065F   26036.82390787  .00002009  00000-0  39199-3 0  9994
2 52899  98.1975 182.0680 0008569  78.9309 281.2856 14.64038454191779
